Change the Weather History Date:

Monday, March 18, 2013

  Actual Average (KSNY) Record (KSNY)
Temperature  
Mean Temperature 33 °F 40 °F  
Max Temperature 47 °F 54 °F 78 °F (2007)
Min Temperature 19 °F 26 °F -6 °F (1965)
Degree Days  
Heating Degree Days 32 25  
Month to date heating degree days 494  
Since 1 July heating degree days 5076  
Cooling Degree Days 0 0  
Month to date cooling degree days 0  
Year to date cooling degree days 0  
Moisture  
Dew Point 12 °F    
Average Humidity 48    
Maximum Humidity 92    
Minimum Humidity 17    
Precipitation  
Precipitation 0.00 in 0.03 in 1.37 in (2003)
Month to date precipitation 0.52  
Year to date precipitation 1.04  
Sea Level Pressure  
Sea Level Pressure 29.85 in    
Wind  
Wind Speed 13 mph (WNW)    
Max Wind Speed 29 mph    
Max Gust Speed 41 mph    
Visibility 10 miles    
Events Snow    
T = Trace of Precipitation, MM = Missing Value Source: NWS Daily Summary

Daily Weather History Graph

Daily Weather History Graph

Search for Another Location

Airport or City:

Trip Planner

Search our weather history database for the weather conditions in past years. The results will help you decide how hot, cold, wet, or windy it might be!

Date:

Astronomy

Mar. 18, 2013 Rise Set
Actual Time 8:00 AM CDT 8:05 PM CDT
Civil Twilight 7:33 AM CDT 8:32 PM CDT
Nautical Twilight 7:01 AM CDT 9:04 PM CDT
Astronomical Twilight 6:28 AM CDT 9:37 PM CDT
Moon 11:59 AM CDT 2:09 AM CDT
Length of Visible Light 12h 59m
Length of Day
12h 04m
Waxing Crescent, 41% of the Moon is Illuminated
Mar 18
Waxing Crescent
Mar 19
First Quarter
Mar 27
Full
Apr 2
Last Quarter
Apr 10
New

Hourly Weather History & Observations

Time (CDT) Temp. Windchill Dew Point Humidity Pressure Visibility Wind Dir Wind Speed Gust Speed Precip Events Conditions
12:15 AM 28.2 °F 18.3 °F 26.2 °F 92% 29.81 in 7.0 mi NNW 11.5 mph - N/A Snow Light Snow
12:35 AM 27.0 °F 16.7 °F 24.3 °F 90% 29.81 in 10.0 mi NW 11.5 mph - N/A   Scattered Clouds
12:55 AM 24.6 °F 14.4 °F 22.1 °F 90% 29.81 in 10.0 mi WNW 10.4 mph - N/A   Clear
1:15 AM 23.7 °F 13.3 °F 21.4 °F 91% 29.83 in 10.0 mi NW 10.4 mph - N/A   Clear
1:35 AM 24.8 °F 12.9 °F 22.1 °F 89% 29.82 in 10.0 mi West 13.8 mph - N/A   Clear
1:55 AM 23.9 °F 13.5 °F 21.2 °F 89% 29.82 in 10.0 mi West 10.4 mph - N/A   Clear
2:15 AM 22.3 °F 10.8 °F 19.9 °F 91% 29.82 in 10.0 mi West 11.5 mph - N/A   Clear
2:35 AM 23.7 °F 12.1 °F 19.4 °F 84% 29.83 in 10.0 mi West 12.7 mph - N/A   Clear
2:55 AM 23.9 °F 12.3 °F 18.1 °F 79% 29.83 in 10.0 mi West 12.7 mph - N/A   Clear
3:15 AM 25.3 °F 11.8 °F 16.2 °F 68% 29.82 in 10.0 mi WNW 18.4 mph - N/A   Clear
3:35 AM 25.2 °F 13.3 °F 15.6 °F 67% 29.83 in 10.0 mi West 13.8 mph - N/A   Clear
3:55 AM 25.3 °F 12.6 °F 15.3 °F 66% 29.83 in 10.0 mi West 16.1 mph - N/A   Clear
4:15 AM 23.7 °F 12.1 °F 14.5 °F 68% 29.83 in 10.0 mi West 12.7 mph - N/A   Clear
4:35 AM 24.6 °F 13.2 °F 14.0 °F 64% 29.83 in 10.0 mi West 12.7 mph - N/A   Clear
4:55 AM 22.6 °F 11.9 °F 13.1 °F 67% 29.83 in 10.0 mi West 10.4 mph - N/A   Clear
5:15 AM 22.8 °F 10.9 °F 12.6 °F 65% 29.83 in 10.0 mi West 12.7 mph - N/A   Clear
5:35 AM 23.0 °F 11.1 °F 12.6 °F 64% 29.83 in 10.0 mi West 12.7 mph - N/A   Clear
5:55 AM 23.0 °F 11.7 °F 11.8 °F 62% 29.82 in 10.0 mi WNW 11.5 mph - N/A   Clear
6:15 AM 22.8 °F 12.2 °F 11.8 °F 63% 29.83 in 10.0 mi West 10.4 mph - N/A   Clear
6:35 AM 22.1 °F 10.0 °F 11.7 °F 64% 29.83 in 10.0 mi West 12.7 mph - N/A   Clear
6:55 AM 22.1 °F 10.6 °F 11.5 °F 64% 29.83 in 10.0 mi West 11.5 mph - N/A   Clear
7:15 AM 21.9 °F 10.4 °F 11.3 °F 64% 29.83 in 10.0 mi West 11.5 mph - N/A   Clear
7:35 AM 21.2 °F 8.9 °F 11.3 °F 66% 29.84 in 10.0 mi West 12.7 mph - N/A   Clear
7:55 AM 20.7 °F 8.2 °F 10.9 °F 66% 29.85 in 10.0 mi West 12.7 mph - N/A   Clear
8:15 AM 19.8 °F 7.7 °F 10.8 °F 68% 29.86 in 10.0 mi West 11.5 mph - N/A   Clear
8:35 AM 20.7 °F 8.8 °F 11.7 °F 68% 29.86 in 10.0 mi West 11.5 mph - N/A   Clear
8:55 AM 23.5 °F 13.7 °F 13.1 °F 64% 29.87 in 10.0 mi WNW 9.2 mph - N/A   Clear
9:15 AM 25.7 °F 15.7 °F 14.2 °F 62% 29.87 in 10.0 mi WNW 10.4 mph - N/A   Clear
9:35 AM 28.4 °F 17.0 °F 15.4 °F 58% 29.87 in 10.0 mi WNW 15.0 mph - N/A   Clear
9:55 AM 31.5 °F 20.1 °F 17.2 °F 56% 29.87 in 10.0 mi WNW 17.3 mph - N/A   Clear
10:15 AM 33.8 °F 22.2 °F 16.7 °F 50% 29.87 in 10.0 mi WNW 20.7 mph 28.8 mph N/A   Clear
10:35 AM 35.4 °F 22.5 °F 13.6 °F 41% 29.87 in 10.0 mi WNW 28.8 mph 34.5 mph N/A   Clear
10:55 AM 36.5 °F 24.9 °F 12.2 °F 37% 29.89 in 10.0 mi WNW 24.2 mph 29.9 mph N/A   Clear
11:15 AM 37.6 °F 27.4 °F 9.7 °F 32% 29.89 in 10.0 mi NW 19.6 mph 28.8 mph N/A   Clear
11:35 AM 37.8 °F 27.1 °F 5.2 °F 26% 29.90 in 10.0 mi NW 21.9 mph 28.8 mph N/A   Clear
11:55 AM 38.5 °F 29.2 °F 5.7 °F 26% 29.90 in 10.0 mi NW 17.3 mph 27.6 mph N/A   Clear
12:15 PM 39.2 °F 30.2 °F 5.4 °F 25% 29.90 in 10.0 mi NW 17.3 mph 23.0 mph N/A   Clear
12:35 PM 39.6 °F 31.3 °F 5.0 °F 24% 29.90 in 10.0 mi NW 15.0 mph 23.0 mph N/A   Clear
12:55 PM 40.6 °F 31.7 °F 6.6 °F 25% 29.89 in 10.0 mi NW 18.4 mph 28.8 mph N/A   Clear
1:15 PM 40.5 °F 32.5 °F 6.1 °F 24% 29.89 in 10.0 mi WNW 15.0 mph 25.3 mph N/A   Clear
1:35 PM 39.9 °F 32.1 °F 7.0 °F 26% 29.89 in 10.0 mi NW 13.8 mph 21.9 mph N/A   Mostly Cloudy
1:55 PM 41.5 °F 32.9 °F 8.1 °F 25% 29.87 in 10.0 mi NNW 18.4 mph 24.2 mph N/A   Mostly Cloudy
2:15 PM 41.4 °F 33.6 °F 7.3 °F 25% 29.87 in 10.0 mi NW 15.0 mph 23.0 mph N/A   Overcast
2:35 PM 43.3 °F 34.7 °F 5.7 °F 21% 29.85 in 10.0 mi NW 20.7 mph 26.5 mph N/A   Overcast
2:55 PM 42.4 °F 36.1 °F 3.9 °F 20% 29.84 in 10.0 mi WNW 11.5 mph 26.5 mph N/A   Overcast
3:15 PM 44.2 °F 36.7 °F 3.2 °F 18% 29.83 in 10.0 mi NW 17.3 mph 34.5 mph N/A   Mostly Cloudy
3:35 PM 46.2 °F 38.7 °F 3.9 °F 18% 29.81 in 10.0 mi WNW 19.6 mph 28.8 mph N/A   Scattered Clouds
3:55 PM 45.3 °F 37.3 °F 4.1 °F 18% 29.81 in 10.0 mi WNW 20.7 mph 34.5 mph N/A   Scattered Clouds
4:15 PM 44.2 °F 37.6 °F 5.0 °F 20% 29.81 in 10.0 mi NNW 13.8 mph 25.3 mph N/A   Mostly Cloudy
4:35 PM 45.1 °F 39.1 °F 6.8 °F 21% 29.81 in 10.0 mi North 12.7 mph 33.4 mph N/A   Mostly Cloudy
4:55 PM 45.5 °F 36.9 °F 5.7 °F 20% 29.81 in 10.0 mi NW 24.2 mph 29.9 mph N/A   Mostly Cloudy
5:15 PM 43.9 °F 35.4 °F 6.4 °F 22% 29.82 in 10.0 mi WNW 20.7 mph 29.9 mph N/A   Overcast
5:35 PM 44.4 °F 37.5 °F 6.8 °F 21% 29.81 in 10.0 mi NW 15.0 mph 18.4 mph N/A   Overcast
5:55 PM 47.1 °F - 4.1 °F 17% 29.80 in 10.0 mi West 27.6 mph 35.7 mph N/A   Mostly Cloudy
6:15 PM 44.8 °F 37.1 °F 7.0 °F 21% 29.80 in 10.0 mi NW 18.4 mph 41.4 mph N/A   Scattered Clouds
6:35 PM 43.9 °F 34.5 °F 9.5 °F 25% 29.80 in 10.0 mi West 25.3 mph 28.8 mph N/A   Overcast
6:55 PM 42.3 °F 35.9 °F 9.3 °F 26% 29.81 in 10.0 mi North 11.5 mph 18.4 mph N/A   Overcast
7:15 PM 41.5 °F 35.9 °F 10.6 °F 28% 29.82 in 10.0 mi North 9.2 mph 19.6 mph N/A   Overcast
7:35 PM 40.6 °F 34.3 °F 10.8 °F 29% 29.83 in 10.0 mi NW 10.4 mph - N/A   Overcast
7:55 PM 41.0 °F 32.5 °F 14.9 °F 35% 29.83 in 10.0 mi West 17.3 mph 25.3 mph N/A   Mostly Cloudy
8:15 PM 41.5 °F 35.0 °F 15.8 °F 35% 29.83 in 10.0 mi West 11.5 mph 23.0 mph N/A   Overcast
8:35 PM 42.8 °F 32.7 °F 13.5 °F 30% 29.82 in 10.0 mi West 27.6 mph 38.0 mph N/A   Overcast
8:55 PM 38.5 °F 34.1 °F 13.1 °F 35% 29.83 in 10.0 mi NNE 5.8 mph - N/A   Mostly Cloudy
9:15 PM 36.0 °F - 12.9 °F 39% 29.84 in 10.0 mi Calm Calm - N/A   Scattered Clouds
9:35 PM 34.7 °F - 12.9 °F 41% 29.85 in 10.0 mi Calm Calm - N/A   Scattered Clouds
9:55 PM 32.4 °F 29.1 °F 13.1 °F 45% 29.86 in 10.0 mi ESE 3.5 mph - N/A   Clear
10:15 PM 31.8 °F - 11.8 °F 44% 29.87 in 10.0 mi Calm Calm - N/A   Clear
10:55 PM 32.2 °F 23.8 °F 14.0 °F 47% 29.92 in 10.0 mi NNE 10.4 mph - N/A   Scattered Clouds
11:15 PM 31.5 °F 23.5 °F 15.3 °F 51% 29.91 in 10.0 mi NE 9.2 mph - N/A   Scattered Clouds
11:35 PM 29.1 °F 20.0 °F 13.1 °F 51% 29.92 in 10.0 mi NE 10.4 mph - N/A   Clear
11:55 PM 28.9 °F 20.4 °F 12.9 °F 51% 29.93 in 10.0 mi NNE 9.2 mph - N/A   Clear